STARLINK-32635 (62155 NORAD) Tracking and Keplerian Element Data

This shows tracking and keplerian element data for the satellite.

Feedback or suggestion? Click here.




ElementValue
Catalog62155
NameSTARLINK-32635
Epoch Orbit1125
Epoch Day35.04372792
Epoch Year2025
RAAN257.1139
Inclination43.001
Eccentricity0.0001323
Argument of Perigee272.4284
Mean Anonmoly87.6418
Mean Motion15.32092211
Decay Rate2.07E-06
L11 62155U 24224S 25035.04372792 .00000207 00000+0 15241-4 0 9997
L22 62155 43.0010 257.1139 0001323 272.4284 87.6418 15.32092211 11254



Live tracking and technical data element details for STARLINK-32635 (NORAD 62155). STARLINK-32635 can be tracked NOW for your location showing map with azimuth and elevation plus other details from your city location.







IsCatalogInMostPopularTable: catalog: 62155, numindb: 12
Update: records affected: 1



GetName: 62155 STARLINK-32635

Hit Count: updated at: Mon, 19 May 2025 03:29:22 GMT